SL-4 R/B (48870 NORAD) Tracking and Keplerian Element Data

This shows tracking and keplerian element data for the satellite.

Feedback or suggestion? Click here.




ElementValue
Catalog48870
NameSL-4 R/B
Epoch Orbit40
Epoch Day183.60059884
Epoch Year2021
RAAN265.4048
Inclination51.6303
Eccentricity0.0009686
Argument of Perigee57.8871
Mean Anonmoly302.8584
Mean Motion16.48242258
Decay Rate0.14408469
L11 48870U 21057B 21183.60059884 .14408469 12715-4 20398-3 0 9998
L22 48870 51.6303 265.4048 0009686 57.8871 302.8584 16.48242258 407

Live tracking and technical data element details for SL-4 R/B (NORAD 48870). SL-4 R/B can be tracked NOW for your location showing map with azimuth and elevation plus other details from your city location.

Track the satellite on the map from your city or location and see movement details for azimuth, elevation, latitude, longitude, range, height, and movement on the map or in text.







IsCatalogInMostPopularTable: catalog: 48870, numindb: 24
Update: records affected: 1



GetName: 48870 SL-4 R/B

Hit Count: updated at: Sun, 26 Sep 2021 16:44:31 GMT